CZ-6A DEB

Satellite information

Favourite Embed

Satellite Type and Status

DEBRISIN ORBIT

Key statistics

Satellite CZ-6A DEB at a glance.

Uptime

1073

Days in orbit

Revolutions

≈ 14.3

Per day

Orbit

SSO

Sun Synchronous Orbit

Inclination

98.8

Latest

Satellite identification and parameters

Extended collection of information and parameters for CZ-6A DEB.

Object identification

Identified? True

Debris? True

Object name: CZ-6A DEB

International designator: 2022-151AEA

Object number (NORAD): 56602

Object ID (CCSDS): 56602

Country: PEOPLES REPUBLIC OF CHINA (PRC)

Current information (Y/N): Y

RCS size: SMALL

Orbital parameters

Period: 100.666 minutes

Inclination: 98.7934 deg

SMA: 7168.267 km

Apoapsis: 811.887 km

Periapsis: 768.377 km

RAAN: 303.9715 deg

Eccentricy: 0.0030349

Argument of periapsis: 238.5372 deg

Mean anomaly: 121.2843 deg

Mean motion: 14.30478976 rev/day

Mean motion (dot): 0.00012716 rev/day2

B* drag term: 0.0048675187 1/REarth

Two-line elements (TLE)

Creation date: Oct. 18, 2025, 2:17 a.m.

Reference frame: TEME

Reference center: EARTH

Epoch: Oct. 17, 2025, 11:53 p.m. UTC

TLE line 0: 0 CZ-6A DEB

TLE line 1: 1 56602U 22151AEA 25290.99526695 .00012716 00000-0 48675-2 0 9998

TLE line 2: 2 56602 98.7934 303.9715 0030349 238.5372 121.2843 14.30478976137290

Live tracking on map

Real-time ground track for satellite CZ-6A DEB.

In-orbit conjunctions

A list of the most updated potential collisions computed for object CZ-6A DEB.

Target Orbit TCA Probability of collision Miss distance Type
IRS P2 SSO 2025-06-24 02:14:25 0.0002154797 799.0 (m) PAYLOAD
IRIS R/B LEO 2025-05-05 15:50:25 0.0002253127 218.0 (m) ROCKET BODY
DMSP 5D-2 F9 (USA 29) SSO 2025-01-11 22:06:54 0.0001105701 529.0 (m) PAYLOAD
SL-3 R/B LEO 2024-12-26 14:08:52 0.0002763058 229.0 (m) ROCKET BODY
SAPPHIRE LEO 2024-11-28 12:32:29 0.0009388873 69.0 (m) PAYLOAD

Associated space launch

Chinese satellite reported for atmospheric/ocean/environmental/spatial parameter research purposes, details TBD.

CZ-6A DEB was lifted into orbit during the mission ‘Long March 6A | Yunhai 3’, on board a Long March 6A space rocket.

The launch took place on Nov. 11, 2022, 10:52 p.m. from Launch Complex 9A.

For more information about the launch, click the button.

Launch to space Long March 6A | Yunhai 3
Long March 6A | Yunhai 3

Agency: N/A

Status: Launch Successful

Launch date: Nov. 11, 2022, 10:52 p.m. UTC

Rocket: Long March 6A

Launch pad: Launch Complex 9A

Location: Taiyuan Satellite Launch Center, People's Republic of China

...

Latest news about this satellite

There are no fresh news available about this satellite. Check back as we update our databases every day.


Newsletter sign-up

Weekly statistics, charts and insights to help you stay on top of the space industry.